Location: Bletchingley
(51.2333°N, 0.1000°W)
Time: 22:20:46
(UTC+00:00)

USA 238 - Pass Details

Date: 18 September 2020
Orbit: 1006 x 1206 km, 63.4° (Epoch: 15 October)

Event Time Altitude Azimuth Distance (km) Brightness Sun altitude
Rises 19:30:25 0° 314° (NW) 3,919 8.0 -13.6°
Reaches altitude 10° 19:33:03 10° 315° (NW) 2,987 7.1 -14.0°
Maximum altitude 19:40:14 84° 44° (NE) 1,165 3.8 -15.0°
Enters shadow 19:45:44 20° 133° (SE) 2,429 5.0 -15.8°
